Zurück zum Katalog

FLOCK 4BE 6

AktivWissenschaftSSO
NORAD 60516·PAYLOAD·🇺🇸 United States

Gestartet Aug 16, 2024 von Vandenberg Space Force Base

Loading…

Nächste Überflüge (nächste 24 Stunden)

TLE

AktuellSource: CelesTrak SupGP

Epoche: Sep 14, 2026, 18:45 UTC

1 60516C 24149AV  26257.78145833  .00031046  00000+0  72491-3 0  2575
2 60516  97.3739 342.2386 0002616 349.0345 223.2317 15.42209140    18

Verfolge FLOCK 4BE 6 in Echtzeit mit AllMySat

Download on the App Store